Location: Crescent
(42.8242°N, 73.7329°W)
Time: 03:21:21
(UTC+00:00)

Transit 4A - Pass Details

Date: 19 February 2026
Orbit: 864 x 977 km, 66.8° (Epoch: 7 March)

Event Time Altitude Azimuth Distance (km) Brightness Sun altitude
Rises 18:14:29 0° 320° (NW) 3,623 10.7 34.0°
Reaches altitude 10° 18:17:17 10° 310° (NW) 2,690 10.2 33.9°
Maximum altitude 18:22:41 31° 251° (WSW) 1,632 10.1 33.5°
Drops below altitude 10° 18:28:07 10° 192° (SSW) 2,713 11.7 33.1°
Sets 18:30:58 0° 182° (S) 3,660 11.9 32.9°
